RH
25 18 24 22 23 22 24 23 19 15 17 23 18 17 14 12 13 14 19 20 21 23 27 30 36 34 28 27 21 18 18 16 17 27 37 37 38 42 47 44 34 41 45 46
22 26 23 23 22 23 22 23 20 18 18 23 21 19 13 13 14 18 20 20 22 24 28 32 35 38 34 32 30 32 31 26 23 32 34 32 34 36 37 43 52 52 45 48
25 25 23 23 22 24 22 25 23 25 22 18 21 13 13 14 17 20 21 24 26 26 27 31 34 38 42 40 39 36 33 33 32 26 28 30 30 32 39 39 41 48 49 54
23 25 25 23 24 25 26 24 25 27 28 22 24 19 15 15 15 15 20 21 22 24 27 31 32 36 42 44 43 40 34 33 32 20 31 26 30 29 30 35 38 42 48 47
27 26 25 24 27 26 26 26 27 30 30 29 26 27 17 18 16 16 17 20 22 25 28 28 31 34 38 43 46 31 35 36 34 30 20 39 40 36 39 43 42 49 37 28
24 27 25 24 24 26 25 27 27 31 32 41 28 27 19 18 19 18 17 21 25 25 27 25 23 24 32 40 36 32 32 38 39 29 23 23 25 40 40 44 46 44 47 46
22 25 26 28 27 27 28 31 44 43 41 35 29 32 23 19 18 20 22 24 26 28 30 30 30 31 30 36 34 31 30 40 40 31 27 27 29 51 48 48 44 43 45 48
36 31 24 30 31 36 31 33 47 78 46 39 27 36 19 18 20 22 26 26 28 29 30 32 32 33 34 30 38 41 37 33 41 34 32 34 34 44 46 35 32 33 34 30
44 36 31 30 34 33 37 41 34 46 58 56 34 26 22 18 20 23 23 26 28 31 33 34 33 30 30 36 35 40 37 39 42 33 33 34 33 32 33 31 28 34 31 39
42 54 38 33 35 33 36 31 50 48 84 71 32 31 27 23 23 22 24 26 31 35 36 37 38 38 39 42 41 44 33 35 37 34 33 33 33 33 31 28 27 27 26 31
39 51 45 39 36 43 43 46 38 40 48 67 66 40 23 26 25 26 26 29 33 35 38 39 40 40 42 46 40 34 31 36 37 34 34 33 33 30 29 30 31 39 40 36
44 54 66 49 36 36 40 45 42 59 56 56 72 61 27 26 26 30 30 30 33 36 38 39 44 46 45 44 39 37 39 42 34 33 31 33 29 31 32 44 42 49 58 62
48 64 72 46 39 40 42 40 42 48 72 80 92 57 24 24 25 27 29 31 35 37 39 42 48 47 42 46 45 46 44 36 31 34 35 37 34 36 56 60 59 60 64 67
51 58 68 63 46 41 54 47 44 54 92 76 65 52 38 33 31 28 30 34 38 40 43 51 56 45 43 46 46 46 40 31 43 54 43 37 51 42 52 52 45 48 56 53
56 76 56 54 50 52 55 55 52 58 59 83 63 49 39 35 32 33 35 38 42 44 55 58 54 45 42 44 44 38 42 47 64 59 46 52 44 39 44 48 39 44 54 53
54 80 77 83 59 58 67 57 55 53 52 50 51 52 37 35 33 33 37 41 44 54 62 61 56 45 39 41 42 55 59 72 68 46 52 50 40 47 46 35 46 54 52 52
72 87 99 95 60 78 98 78 56 46 43 49 61 47 34 33 34 39 44 48 64 61 69 92 56 42 38 43 58 65 73 70 50 52 52 42 47 44 38 39 54 51 53 55
94 99 95 98 98 95 37 29 31 39 40 38 37 39 35 34 42 62 63 64 70 77 92 92 61 45 49 65 65 84 72 66 58 52 40 49 46 42 40 52 52 52 56 60
66 95 99 100 86 57 43 34 42 48 49 34 36 36 41 55 72 78 60 68 77 94 97 76 83 77 82 87 97 84 69 54 51 42 50 44 44 42 49 53 54 58 64 73
65 83 99 100 98 82 47 34 37 37 58 39 42 53 68 74 94 70 63 83 98 99 96 94 99 99 99 98 87 62 54 50 55 48 45 59 42 48 55 55 57 63 69 85
100 100 99 97 98 76 41 40 45 77 65 55 54 57 62 66 67 78 84 92 97 96 98 99 100 99 96 82 65 68 53 55 46 52 57 43 49 58 57 56 63 67 88 100
81 99 100 100 100 91 41 43 66 51 57 53 57 64 66 70 88 87 97 100 97 98 100 99 85 88 81 84 71 56 50 49 53 54 46 51 60 63 56 63 70 86 100 97
94 81 76 63 64 39 44 51 56 56 57 59 63 66 71 94 90 100 98 100 99 100 98 92 90 86 81 57 50 52 48 50 53 48 52 65 69 62 60 69 87 96 94 100
67 62 82 82 62 51 51 56 58 60 63 63 73 83 99 99 99 99 100 94 97 100 99 91 83 66 58 48 42 47 48 52 51 51 65 74 69 47 62 80 87 95 100 100
74 81 92 91 78 61 60 56 57 64 66 71 76 90 99 99 98 99 92 97 100 98 99 87 72 61 55 49 48 50 54 53 53 64 77 78 59 47 72 91 98 100 100 100
91 87 93 88 58 63 68 60 57 62 70 77 91 93 98 100 99 95 98 100 100 97 94 80 63 50 56 51 53 58 54 51 65 77 89 63 34 60 92 94 100 100 97 94
Wind_Speed
4 3 7 8 6 3 4 6 12 8 4 13 14 22 21 20 14 14 14 14 16 20 17 17 17 18 17 17 16 15 13 12 9 6 5 4 3 3 1 0 9 6 3 5
4 6 5 2 3 5 8 14 11 4 4 13 16 23 15 5 6 6 5 4 6 10 14 17 19 19 22 20 19 14 13 13 12 9 8 9 8 6 5 4 4 3 6 6
3 4 3 4 4 9 10 10 12 16 22 10 13 7 4 5 4 3 3 3 4 3 7 12 17 21 22 23 20 18 15 15 15 16 12 9 9 9 7 7 6 9 9 9
2 3 4 5 6 9 9 5 11 17 15 7 9 6 5 3 7 5 6 6 9 8 8 8 10 16 21 22 22 21 19 18 18 21 15 15 12 12 12 12 11 13 13 14
5 4 6 4 6 6 5 13 16 12 9 9 6 5 2 3 3 4 5 6 7 10 10 11 10 12 16 20 22 24 22 21 20 20 20 15 14 14 13 13 15 13 16 19
3 1 2 5 8 3 10 13 11 4 2 4 4 4 3 2 4 6 5 9 9 10 11 15 17 14 13 18 24 26 26 23 22 22 23 22 20 17 16 13 12 12 11 13
4 2 2 4 7 2 11 10 4 3 3 6 4 9 9 6 4 6 9 10 9 12 14 16 15 13 14 18 24 27 27 24 22 26 27 25 23 17 14 11 11 13 11 12
5 2 3 5 4 7 4 5 3 5 5 11 14 7 0 3 6 8 7 7 9 12 17 18 16 15 16 19 22 24 24 26 24 28 26 23 20 13 10 15 16 17 16 20
5 2 2 2 5 4 2 2 3 5 1 5 5 8 16 7 4 4 7 10 11 17 18 18 16 18 18 21 25 27 27 25 25 25 23 21 19 17 16 17 18 17 20 21
3 6 2 2 3 4 4 2 3 3 5 6 7 16 10 6 9 9 13 13 14 21 22 22 21 22 22 24 23 25 30 29 27 25 22 18 17 16 16 18 21 23 26 27
3 2 4 8 2 13 6 4 4 4 4 4 7 7 6 12 16 13 13 16 22 27 26 27 25 23 23 23 25 27 28 26 23 20 17 15 13 15 18 20 21 23 26 28
3 4 5 13 13 6 8 7 5 3 5 7 6 17 20 18 10 8 17 27 28 28 28 26 27 28 22 22 22 23 20 18 16 13 12 12 15 16 18 18 22 24 24 25
2 1 7 9 3 2 3 4 6 9 4 17 9 12 5 11 18 34 31 31 32 30 29 30 36 30 22 20 18 15 15 14 11 11 12 16 17 15 15 17 21 23 24 24
6 7 11 12 17 15 19 23 23 17 8 19 21 38 33 32 29 30 34 32 30 27 30 36 39 29 21 17 13 13 12 9 10 14 16 14 12 17 19 23 27 28 28 28
5 9 15 21 20 18 22 29 30 25 27 17 37 31 32 31 30 37 36 29 27 26 37 37 34 29 20 15 13 12 8 10 13 16 14 12 16 21 24 27 31 30 29 29
4 7 4 14 21 20 23 29 32 28 30 31 33 35 32 40 33 29 29 30 26 34 40 34 32 28 19 17 14 9 14 12 14 17 14 14 20 21 26 31 30 28 28 29
6 3 3 6 7 5 10 24 22 17 15 16 21 26 23 23 24 21 23 28 35 39 26 33 31 25 15 14 11 9 14 13 15 17 13 18 20 25 30 30 28 28 30 31
5 3 3 6 4 7 3 17 19 18 19 22 21 22 25 23 22 25 38 38 33 30 31 28 23 14 11 13 14 16 10 14 16 11 16 18 23 28 30 27 27 28 29 31
18 4 4 4 8 20 13 7 7 11 15 16 16 14 22 30 39 31 31 26 28 30 31 23 21 16 17 17 19 10 13 12 10 12 14 22 27 29 27 27 27 28 29 30
3 6 4 4 10 15 11 24 8 5 14 9 8 21 25 25 14 18 40 22 29 29 24 24 23 18 21 11 6 11 12 10 8 13 19 27 27 27 26 27 27 28 29 30
3 3 11 12 10 12 13 4 1 4 10 13 32 36 36 21 28 42 32 34 31 26 22 25 21 13 6 7 12 14 9 7 13 18 22 25 26 24 27 26 26 28 28 31
8 4 5 5 7 11 4 3 5 17 39 43 44 44 41 37 36 33 25 29 26 27 23 15 2 3 5 10 12 8 6 10 16 19 23 24 24 25 24 24 26 26 27 31
5 10 10 12 10 19 21 23 32 42 41 47 39 41 35 36 41 20 31 29 23 24 9 3 4 8 10 12 7 5 10 14 17 21 22 22 24 22 21 23 24 24 25 26
6 17 11 14 15 30 32 36 42 47 39 40 41 34 33 32 20 31 26 22 26 11 2 3 8 11 8 7 8 10 12 16 19 21 22 24 20 24 23 21 20 22 23 23
13 9 8 18 26 40 33 36 38 42 42 41 37 33 33 22 27 21 21 22 13 2 3 6 10 8 4 7 9 11 14 18 19 21 23 20 20 23 23 19 20 21 20 20
10 8 7 18 36 33 41 43 42 47 43 41 34 34 27 18 18 16 17 13 4 2 5 10 9 6 5 8 10 14 17 18 19 21 19 20 23 22 19 20 21 19 23 21
Wind_Direction
31 26 33 28 16 346 307 294 313 324 327 316 308 295 296 298 282 273 264 256 250 246 244 236 229 235 235 235 232 230 233 235 229 218 203 204 199 186 188 80 359 357 341 352
221 58 27 346 338 316 323 321 340 319 329 305 302 297 307 345 346 330 331 308 285 258 242 239 234 230 234 232 227 220 220 228 224 214 212 207 206 218 232 247 264 271 316 306
354 50 332 321 342 348 348 327 330 322 324 303 317 285 4 87 1 354 322 331 350 296 258 251 238 234 232 229 224 226 224 222 222 222 230 239 244 246 256 264 284 282 288 288
29 36 340 338 38 353 320 339 303 311 325 329 6 312 2 15 352 68 47 43 2 354 326 292 257 244 236 232 229 229 228 226 227 236 232 239 240 250 256 262 275 300 287 292
67 11 349 10 12 339 308 312 299 309 277 297 158 254 198 348 40 31 35 360 349 336 323 317 290 265 245 234 231 238 235 232 229 235 244 246 255 262 264 266 274 281 292 292
16 342 340 2 319 315 304 300 301 270 244 254 139 336 254 52 336 319 322 342 331 327 325 317 303 288 247 233 235 237 238 234 231 240 250 254 254 254 256 261 266 277 283 284
327 124 74 346 310 178 333 327 335 299 263 295 151 292 269 283 283 290 309 317 326 320 318 312 289 267 258 239 241 238 241 237 232 241 246 249 249 244 246 252 266 276 286 284
348 174 357 3 13 316 358 339 347 284 292 298 274 237 134 282 257 270 246 272 309 320 319 311 293 272 266 270 250 241 240 241 233 241 245 244 245 242 246 269 278 288 288 290
343 293 10 139 326 296 64 281 354 269 230 272 239 257 266 267 206 205 293 320 322 329 324 320 301 288 292 297 273 247 242 239 236 242 244 244 249 254 266 276 289 295 297 298
53 288 54 324 204 154 321 1 248 195 291 284 272 295 257 264 296 301 302 317 321 327 325 324 313 295 285 288 271 249 247 243 244 245 244 242 255 267 276 288 295 295 299 302
353 265 298 312 241 316 279 251 238 285 240 276 301 270 302 285 289 298 317 330 320 328 326 326 323 316 295 285 274 263 251 241 237 231 233 244 257 272 283 292 298 301 300 301
37 306 284 293 315 299 248 251 248 275 272 261 268 274 265 275 286 307 310 317 326 324 324 323 322 313 299 280 266 257 243 225 220 225 243 265 265 281 290 293 298 301 298 296
36 292 312 316 170 158 268 233 253 285 296 259 258 269 210 276 281 307 315 320 323 323 320 320 323 314 294 271 254 234 214 208 220 248 265 276 277 280 286 295 300 299 296 294
282 244 226 262 283 306 292 280 273 274 261 272 254 272 286 291 295 307 315 317 320 320 322 319 317 309 290 257 226 205 200 221 271 288 275 264 266 288 297 305 308 306 304 300
214 252 257 265 278 284 277 276 270 262 256 253 270 274 281 289 301 313 312 313 317 315 321 315 314 307 288 241 210 202 228 268 286 280 256 252 280 297 308 313 311 307 303 301
239 270 299 270 280 270 270 269 270 264 262 260 262 272 273 287 301 311 314 313 317 308 313 318 311 305 275 229 208 231 261 270 275 271 258 269 290 303 313 314 309 305 304 304
260 261 246 254 298 327 271 254 260 257 248 255 262 267 290 303 316 332 315 312 301 304 311 315 308 301 259 228 241 263 276 278 277 270 260 283 298 311 315 313 309 307 307 306
221 212 251 280 286 229 279 298 279 278 284 278 275 281 291 310 326 321 304 301 302 300 303 304 302 290 243 251 269 283 275 283 268 249 278 295 310 314 314 311 309 308 308 305
220 219 252 262 255 283 279 296 315 301 289 291 293 320 328 315 304 296 303 307 302 306 303 286 282 268 267 268 278 265 278 261 242 274 295 310 315 314 313 311 310 311 308 307
224 221 227 261 279 292 344 314 326 287 289 64 359 325 305 295 295 303 318 313 319 309 297 281 289 284 272 271 252 265 281 243 258 290 308 309 312 314 312 312 312 312 310 307
176 205 227 244 260 265 281 355 122 278 318 311 314 314 312 307 303 312 310 314 313 303 298 287 295 287 246 268 272 288 260 254 288 309 313 314 315 314 314 315 313 313 312 309
247 230 209 231 240 282 317 172 244 312 315 310 311 309 305 307 310 306 302 316 308 305 297 300 213 239 264 278 286 270 253 278 308 316 315 316 318 317 317 315 315 315 316 315
257 212 251 236 249 285 292 286 298 295 297 304 308 310 309 310 308 311 310 311 307 303 299 209 247 287 297 298 295 259 269 298 314 315 316 319 319 318 317 317 318 320 319 316
259 252 254 271 250 273 282 291 287 293 297 304 305 306 314 309 322 306 305 306 310 295 251 243 296 305 298 297 288 279 294 311 315 316 318 320 318 319 323 321 320 318 319 318
256 245 250 271 281 287 280 290 301 303 306 309 315 311 307 308 313 302 308 311 301 248 277 299 307 303 269 269 279 296 310 315 315 318 320 320 321 324 323 322 318 318 318 317
204 228 242 268 283 287 293 303 306 308 311 312 310 307 303 294 301 307 306 304 265 255 298 307 302 285 254 276 296 310 315 316 317 319 318 321 327 325 325 322 322 321 319 328